User: anonymous   Login
Location: Zapote
(9.9191°N, 84.0597°W)
Time: 11:52:06
(UTC-06:00)
Language:

ITUPSAT 1 - Orbit

View from above orbital plane
View from above orbital plane
View from above satellite
View from above satellite

Ground track
Ground track

The orbit data is extracted from the following two-line orbital elements,

1 35935U 09051E   21106.11994185  .00000095  00000-0  33004-4 0  9996
2 35935  98.6144 306.1542 0006981 297.0867  62.9616 14.55708920613734
Epoch (UTC): 16 April 2021 02:52:42
Eccentricity: 0.0006981
inclination: 98.6144°
perigee height: 702 km
apogee height: 712 km
right ascension of ascending node: 306.1542°
argument of perigee: 297.0867°
revolutions per day: 14.55708920
mean anomaly at epoch: 62.9616°
orbit number at epoch: 61373

The dashed part of the orbit path shows where the satellite is in the earth's shadow,  

DLR